Weather History for KTTD - March, 2013

Change the Weather History Date:

Friday, March 1, 2013

  Actual Average Record
Temperature  
Mean Temperature 57 °F 45 °F  
Max Temperature 62 °F 53 °F 64 °F (1968)
Min Temperature 51 °F 37 °F 26 °F (1971)
Degree Days  
Heating Degree Days 8 20  
Month to date heating degree days 8 20  
Cooling Degree Days 0 0  
Month to date cooling degree days 0 0  
Growing Degree Days 6 (Base 50)    
Moisture  
Dew Point 48 °F    
Average Humidity 75    
Maximum Humidity 89    
Minimum Humidity 60    
Precipitation  
Precipitation 0.00 in 0.16 in - ()
Month to date precipitation 0.00 0.16  
Year to date precipitation 4.75 11.43  
Snow  
Snow 0.00 in - - ()
Month to date snowfall 0.0  
Snow Depth 0.00 in    
Sea Level Pressure  
Sea Level Pressure 30.40 in    
Wind  
Wind Speed 5 mph (SW)    
Max Wind Speed 13 mph    
Max Gust Speed 16 mph    
Visibility 10 miles    
Events      
T = Trace of Precipitation, MM = Missing Value Source: NWS Daily Summary

Daily Weather History Graph

Daily Weather History Graph

Search for Another Location

Airport or City:

Trip Planner

Search our weather history database for the weather conditions in past years. The results will help you decide how hot, cold, wet, or windy it might be!

Date:

Astronomy

Mar. 01, 2013 Rise Set
Actual Time 6:47 AM PST 5:57 PM PST
Civil Twilight 6:17 AM PST 6:26 PM PST
Nautical Twilight 5:43 AM PST 7:01 PM PST
Astronomical Twilight 5:09 AM PST 7:35 PM PST
Moon 10:53 PM PST (3/1) 8:22 AM PST (3/1)
Length of Visible Light 12h 09m
Length of Day
11h 09m
Waning Gibbous, 82% of the Moon is Illuminated
Mar 1
Waning Gibbous
Mar 4
Last Quarter
Mar 11
New
Mar 19
First Quarter
Mar 27
Full

Hourly Weather History & Observations

Time (PST) Temp. Dew Point Humidity Pressure Visibility Wind Dir Wind Speed Gust Speed Precip Events Conditions
1:53 AM 55.9 °F 48.9 °F 77% 30.43 in 10.0 mi WSW 6.9 mph - N/A   Overcast
2:53 AM 55.9 °F 48.0 °F 75% 30.43 in 10.0 mi SW 5.8 mph - N/A   Overcast
3:23 AM 55.4 °F 48.2 °F 77% 30.43 in 10.0 mi SW 9.2 mph - N/A   Overcast
4:38 AM 55.4 °F 48.2 °F 77% 30.43 in 10.0 mi SW 3.5 mph - N/A   Overcast
4:53 AM 55.0 °F 48.0 °F 77% 30.43 in 10.0 mi Calm Calm - N/A   Overcast
5:18 AM 55.4 °F 48.2 °F 77% 30.43 in 10.0 mi SW 3.5 mph - N/A   Overcast
5:53 AM 55.0 °F 48.0 °F 77% 30.43 in 10.0 mi SW 4.6 mph - N/A   Overcast
6:17 AM 55.4 °F 48.2 °F 77% 30.43 in 10.0 mi SW 3.5 mph - N/A   Overcast
6:53 AM 55.0 °F 48.9 °F 80% 30.43 in 10.0 mi Calm Calm - N/A   Overcast
7:53 AM 55.9 °F 48.9 °F 77% 30.45 in 10.0 mi WSW 3.5 mph - N/A   Overcast
8:53 AM 55.9 °F 48.9 °F 77% 30.45 in 10.0 mi SSW 5.8 mph - N/A   Mostly Cloudy
9:53 AM 57.0 °F 48.9 °F 74% 30.44 in 10.0 mi SW 8.1 mph - N/A   Mostly Cloudy
10:53 AM 57.9 °F 48.9 °F 72% 30.43 in 10.0 mi SSW 6.9 mph - N/A   Overcast
11:53 AM 60.1 °F 48.9 °F 67% 30.43 in 10.0 mi SSW 9.2 mph - N/A   Scattered Clouds
12:53 PM 61.0 °F 48.0 °F 62% 30.41 in 10.0 mi WSW 9.2 mph - N/A   Mostly Cloudy
1:38 PM 59.0 °F 48.2 °F 67% 30.40 in 10.0 mi West 5.8 mph - N/A   Overcast
1:53 PM 60.1 °F 48.0 °F 64% 30.40 in 10.0 mi WSW 6.9 mph - N/A   Overcast
2:53 PM 60.1 °F 48.0 °F 64% 30.38 in 10.0 mi SW 3.5 mph - N/A   Overcast
3:53 PM 61.0 °F 48.0 °F 62% 30.37 in 10.0 mi SSW 5.8 mph - N/A   Clear
4:53 PM 61.0 °F 46.9 °F 60% 30.35 in 10.0 mi Calm Calm - N/A   Clear
5:53 PM 57.9 °F 48.9 °F 72% 30.35 in 10.0 mi Calm Calm - N/A   Overcast
6:53 PM 55.9 °F 48.9 °F 77% 30.33 in 10.0 mi East 4.6 mph - N/A   Overcast
7:53 PM 55.0 °F 48.9 °F 80% 30.33 in 10.0 mi ENE 4.6 mph - N/A   Overcast
8:53 PM 53.1 °F 48.9 °F 86% 30.32 in 10.0 mi East 3.5 mph - N/A   Overcast
9:53 PM 53.1 °F 48.0 °F 83% 30.33 in 10.0 mi East 4.6 mph - N/A   Overcast
10:53 PM 52.0 °F 48.0 °F 86% 30.33 in 10.0 mi Calm Calm - N/A   Overcast
11:53 PM 51.1 °F 46.9 °F 86% 30.31 in 10.0 mi Calm Calm - N/A   Overcast